Broomfield, CO

10:53 PM MDT on June 24, 2018 (GMT -0600)
Jeffco

Weather History for KBJC - May, 2010

Change the Weather History Date:

Saturday, May 15, 2010

  Actual Average Record
Temperature  
Mean Temperature 48 °F -  
Max Temperature 57 °F 67 °F 86 °F (2000)
Min Temperature 39 °F 44 °F 35 °F (1998)
Degree Days  
Heating Degree Days 17    
Moisture  
Dew Point 40 °F    
Average Humidity 81    
Maximum Humidity 100    
Minimum Humidity 41    
Precipitation  
Precipitation 0.00 in - - ()
Sea Level Pressure  
Sea Level Pressure 30.11 in    
Wind  
Wind Speed 2 mph (NNW)    
Max Wind Speed 15 mph    
Max Gust Speed 21 mph    
Visibility 8 miles    
Events      
Averages and records for this station are not official NWS values.
T = Trace of Precipitation, MM = Missing Value Source: NWS Daily Summary

Daily Weather History Graph

Daily Weather History Graph

Search for Another Location

Airport or City:

Astronomy

May. 15, 2010 Rise Set
Actual Time 5:45 AM MDT 8:08 PM MDT
Civil Twilight 5:14 AM MDT 8:39 PM MDT
Nautical Twilight 4:37 AM MDT 9:17 PM MDT
Astronomical Twilight 3:55 AM MDT 9:59 PM MDT
Moon 6:43 AM MDT (5/15) 10:22 PM MDT (5/15)
Length of Visible Light 15h 24m
Length of Day
14h 23m
Waxing Crescent, 3% of the Moon is Illuminated
May 15
Waxing Crescent
May 20
First Quarter
May 27
Full
Jun 4
Last Quarter
Jun 12
New

Hourly Weather History & Observations

Time (MDT) Temp. Windchill Dew Point Humidity Pressure Visibility Wind Dir Wind Speed Gust Speed Precip Events Conditions
12:17 AM 44.6 °F 43.1 °F 42.8 °F 93% 30.14 in 10.0 mi East 3.5 mph - N/A   Overcast
12:37 AM 44.6 °F - 42.8 °F 93% 30.14 in 10.0 mi Calm Calm - N/A   Overcast
12:57 AM 44.6 °F - 42.8 °F 93% 30.14 in 7.0 mi Calm Calm - N/A   Overcast
1:37 AM 44.6 °F 43.1 °F 42.8 °F 93% 30.12 in 7.0 mi SSW 3.5 mph - N/A   Overcast
1:57 AM 44.6 °F - 42.8 °F 93% 30.10 in 7.0 mi Calm Calm - N/A   Overcast
2:17 AM 42.8 °F 41.1 °F 42.8 °F 100% 30.10 in 5.0 mi North 3.5 mph - N/A   Overcast
2:37 AM 44.6 °F - 42.8 °F 93% 30.10 in 7.0 mi Calm Calm - N/A   Overcast
2:57 AM 42.8 °F - 42.8 °F 100% 30.09 in 5.0 mi Calm Calm - N/A   Mostly Cloudy
3:17 AM 42.8 °F - 41.0 °F 93% 30.08 in 7.0 mi Calm Calm - N/A   Scattered Clouds
3:37 AM 42.8 °F 41.1 °F 41.0 °F 93% 30.08 in 4.0 mi North 3.5 mph - N/A   Clear
4:17 AM 39.2 °F - 37.4 °F 93% 30.08 in 3.0 mi Calm Calm - N/A   Scattered Clouds
4:37 AM 41.0 °F - 41.0 °F 100% 30.08 in 2.0 mi Calm Calm - N/A   Overcast
4:57 AM 41.0 °F 39.0 °F 41.0 °F 100% 30.08 in 4.0 mi North 3.5 mph - N/A   Overcast
5:17 AM 41.0 °F 38.0 °F 41.0 °F 100% 30.08 in 3.0 mi NNW 4.6 mph - N/A   Overcast
5:37 AM 42.8 °F - 41.0 °F 93% 30.08 in 2.0 mi Calm Calm - N/A   Overcast
5:51 AM 42.8 °F - 41.0 °F 93% 30.08 in 2.0 mi Calm Calm - N/A   Overcast
5:57 AM 42.8 °F - 41.0 °F 93% 30.08 in 2.0 mi Calm Calm - N/A   Overcast
6:30 AM 42.8 °F - 41.0 °F 93% 30.09 in 3.0 mi Calm Calm - N/A   Overcast
6:45 AM 44.6 °F - 42.8 °F 93% 30.09 in 3.0 mi Calm Calm - N/A   Overcast
7:59 AM 44.6 °F - 41.0 °F 87% 30.10 in 4.0 mi Calm Calm - N/A   Overcast
8:59 AM 46.4 °F - 41.0 °F 81% 30.09 in 4.0 mi Calm Calm - N/A   Overcast
9:55 AM 46.4 °F - 41.0 °F 81% 30.09 in 7.0 mi Calm Calm - N/A   Overcast
10:35 AM 48.2 °F - 41.0 °F 76% 30.09 in 10.0 mi Calm Calm - N/A   Overcast
10:47 AM 50.0 °F - 41.0 °F 71% 30.09 in 10.0 mi Variable 3.5 mph - N/A   Overcast
11:45 AM 53.6 °F - 41.0 °F 62% 30.10 in 12.0 mi North 8.1 mph - N/A   Mostly Cloudy
12:48 PM 53.6 °F - 39.2 °F 58% 30.07 in 10.0 mi Calm Calm - N/A   Overcast
1:48 PM 55.4 °F - 39.2 °F 54% 30.06 in 15.0 mi WSW 4.6 mph - N/A   Mostly Cloudy
2:46 PM 57.2 °F - 33.8 °F 41% 30.06 in 20.0 mi WSW 13.8 mph - N/A   Mostly Cloudy
3:50 PM 57.2 °F - 37.4 °F 48% 30.05 in 20.0 mi North 5.8 mph - N/A   Mostly Cloudy
4:46 PM 57.2 °F - 41.0 °F 55% 30.06 in 20.0 mi NNE 10.4 mph - N/A   Mostly Cloudy
5:47 PM 55.4 °F - 39.2 °F 54% 30.09 in 20.0 mi NNE 10.4 mph - N/A   Scattered Clouds
6:51 PM 51.8 °F - 41.0 °F 67% 30.11 in 30.0 mi NNE 15.0 mph 20.7 mph N/A   Mostly Cloudy
8:48 PM 48.2 °F - 39.2 °F 71% 30.14 in 30.0 mi WSW 3.5 mph - N/A   Mostly Cloudy
9:48 PM 46.4 °F 45.2 °F 39.2 °F 76% 30.16 in 30.0 mi Variable 3.5 mph - N/A   Mostly Cloudy
10:17 PM 44.6 °F - 39.2 °F 81% 30.17 in 10.0 mi Calm Calm - N/A   Clear
10:37 PM 44.6 °F 43.1 °F 39.2 °F 81% 30.17 in 10.0 mi SSE 3.5 mph - N/A   Clear
10:57 PM 44.6 °F 43.1 °F 37.4 °F 76% 30.17 in 10.0 mi South 3.5 mph - N/A   Clear
11:17 PM 44.6 °F 43.1 °F 37.4 °F 76% 30.18 in 10.0 mi SSE 3.5 mph - N/A   Clear
11:37 PM 44.6 °F 43.1 °F 37.4 °F 76% 30.17 in 10.0 mi South 3.5 mph - N/A   Clear
11:57 PM 44.6 °F 43.1 °F 37.4 °F 76% 30.17 in 10.0 mi SSE 3.5 mph - N/A   Clear